This demonstration page uses our WeatherBlox Daily Observations layout. Learn more.

Left ArrowRight Arrow

Hourly Observations for April 14, 2017

Temp ( °F °C ) Dew Point ( °F °C ) Humidity (%) Winds ( mph kmh ) Pressure ( in mb ) Visibility ( mi km ) Precip ( " mm )
12:53 am 00:53 Cloudy with Light Rain 46 7.8 44 6.7 93 93 SW 14 22 29.64 1004 7 11 0.02 0.51
1:53 am 01:53 Cloudy with Light Rain 45 7.2 44 6.7 97 97 SW 13 20 29.62 1003 9 14 0.09 2.29
2:17 am 02:17 Cloudy with Light Rain 45 7.2 44 6.7 97 97 WSW 7 11 29.62 1003 10 16 0.01 0.25
2:28 am 02:28 Cloudy with Light Rain 45 7 45 7 100 100 SW 12 19 29.65 1004 10 16 0.00 0.00
2:49 am 02:49 Cloudy with Light Rain 46 8 45 7 93 93 WSW 13 20 29.65 1004 10 16 0.02 0.51
2:53 am 02:53 Cloudy with Light Rain 46 7.8 45 7.2 96 96 WSW 13 20 29.59 1002 10 16 0.02 0.51
3:26 am 03:26 Cloudy with Light Rain 45 7.2 44 6.7 97 97 W 17 28 29.65 1004 6 10 0.00 0.03
3:53 am 03:53 Cloudy with Light Rain 44 6.7 43 6.1 96 96 W 15 24 29.62 1003 10 16 0.01 0.25
4:53 am 04:53 Cloudy with Light Rain 44 6.7 42 5.6 93 93 WSW 7 11 29.63 1004 10 16 0.02 0.51
5:03 am 05:03 Cloudy 45 7 43 6 93 93 WSW 10 17 29.68 1005 10 16 0.00 0.00
5:21 am 05:21 Cloudy 43 6.1 41 5 93 93 WSW 14 22 29.71 1006 10 16 0.00 0.03
5:53 am 05:53 Cloudy 43 6.1 41 5 93 93 SW 13 20 29.65 1004 10 16 0.00 0.03
6:53 am 06:53 Cloudy 43 6.1 39 3.9 86 86 SW 17 28 29.68 1005 10 16 0.00 0.00
7:53 am 07:53 Cloudy 43 6.1 38 3.3 82 82 WSW 10 17 29.70 1006 10 16 0.00 0.03
8:53 am 08:53 Cloudy 45 7.2 38 3.3 77 77 WSW 18 30 29.71 1006 10 16 0.00 0.00
9:53 am 09:53 Mostly Sunny 50 10 36 2.2 59 59 WSW 28 44 29.71 1006 10 16 0.00 0.00
10:53 am 10:53 Sunny 52 11.1 32 0 47 47 W 25 41 29.72 1007 10 16 0.00 0.00
11:53 am 11:53 Partly Cloudy 53 11.7 30 -1.1 41 41 W 23 37 29.74 1007 10 16 0.00 0.00
12:53 pm 12:53 Mostly Cloudy 53 11.7 28 -2.2 38 38 W 23 37 29.73 1007 10 16 0.00 0.00
1:53 pm 13:53 Mostly Cloudy 58 14.4 27 -2.8 31 31 WSW 24 39 29.72 1006 10 16 0.00 0.00
2:53 pm 14:53 Mostly Cloudy 55 12.8 24 -4.4 30 30 W 20 31 29.73 1007 10 16 0.00 0.00
3:53 pm 15:53 Cloudy 58 14.4 25 -3.9 28 28 WSW 21 33 29.75 1007 10 16 0.00 0.00
4:53 pm 16:53 Mostly Cloudy 53 11.7 26 -3.3 35 35 WNW 18 30 29.77 1008 10 16 0.00 0.00
5:53 pm 17:53 Partly Cloudy 56 13.3 24 -4.4 29 29 W 24 39 29.77 1008 10 16 0.00 0.00
6:53 pm 18:53 Sunny 54 12.2 28 -2.2 37 37 WNW 17 28 29.78 1009 10 16 0.00 0.00
7:53 pm 19:53 Sunny 44 6.7 31 -0.6 60 60 W 8 13 29.80 1009 10 16 0.00 0.00
8:53 pm 20:53 Clear 46 7.8 27 -2.8 47 47 undefined N/A 29.81 1010 10 16 0.00 0.00
9:53 pm 21:53 Clear 45 7.2 27 -2.8 49 49 W 17 28 29.83 1010 10 16 0.00 0.00
10:53 pm 22:53 Clear 43 6.1 27 -2.8 53 53 W 16 26 29.84 1011 10 16 0.00 0.00
11:53 pm 23:53 Clear 41 5 27 -2.8 57 57 W 12 19 29.86 1011 10 16 0.00 0.00

Powered by AerisWeather